Regional Weather Roundup
Issued by NWS Cleveland, OH

Home | Current Version | Previous Version | Graphics & Text | Print | Product List | Glossary On
Versions: 1 2 3 4 5 6 7 8 9 10 11 12 13 14 15 16 17 18 19 20 21 22 23 24 25 26 27 28 29 30 31 32 33 34 35 36 37 38 39 40 41 42 43 44 45 46 47 48 49 50
891
ASUS41 KCLE 211210
RWRCLE
OHIO REGIONAL WEATHER ROUNDUP
NATIONAL WEATHER SERVICE CLEVELAND, OH
800 AM EDT SAT APR 21 2018

NOTE: "FAIR" INDICATES FEW OR NO CLOUDS BELOW 12,000 FEET WITH NO
SIGNIFICANT WEATHER AND/OR OBSTRUCTIONS TO VISIBILITY.

OHZ001>008-015>018-024>027-034-035-043-044-211300-
   NORTHWEST OHIO

CITY           SKY/WX    TMP DP  RH WIND       PRES   REMARKS
DEFIANCE       FAIR      34  30  85 CALM      30.48R
FINDLAY        FAIR      39  27  62 CALM      30.46R
TOLEDO EXPRESS FAIR      34  31  88 CALM      30.47S
TOLEDO EXEC    FAIR      36  28  73 CALM      30.49R
LIMA           FAIR      40  24  53 SE6       30.46R
$$

OHZ009>014-019>023-028>033-038-089-211300-
   NORTHEAST OHIO

CITY           SKY/WX    TMP DP  RH WIND       PRES   REMARKS
CLE-HOPKINS    FAIR      32  27  81 SE3       30.51R
CLE-LAKEFRONT  FAIR      35  24  64 SE6       30.49R
CUY CO. ARPT   MOSUNNY   32  27  80 CALM      30.50R
LORAIN-ELYRIA  FAIR      31  25  78 VRB5      30.49R WCI  26
ASHTABULA      FAIR      28  27  96 CALM      30.50R
AKRON-CANTON   FAIR      34  25  69 CALM      30.47R
WOOSTER        FAIR      31  28  89 CALM      30.48R
MANSFIELD      FAIR      33  27  78 SE3       30.46R
YOUNGSTOWN     FAIR      33  24  69 CALM      30.48R
$$

OHZ042-051>053-060>062-070>072-077>081-211300-
  SOUTHWEST OHIO

CITY           SKY/WX    TMP DP  RH WIND       PRES   REMARKS
CINC-COVINGTON PTSUNNY   43  25  49 E8        30.43R
CINC-LUNKEN    FAIR      37  35  92 CALM      30.46R
HAMILTON       FAIR      39  25  57 CALM      30.46R
DAYTON         FAIR      40  25  55 E7        30.46R
WRIGHT-PAT AFB FAIR      37  25  60 NE6       30.45S
DAYTON GENERAL FAIR      42  22  44 E8        30.43S
WILMINGTON     FAIR      38  26  62 E7        30.44R
$$

OHZ036-037-039>041-045>050-054>059-063>069-073>076-082>088-211300-
  CENTRAL AND SOUTHEAST OHIO

CITY           SKY/WX    TMP DP  RH WIND       PRES   REMARKS
COLUMBUS       FAIR      35  27  72 N3        30.47R
OSU AIRPORT    FAIR      35  24  64 E5        30.47R
BOLTON FIELD   SUNNY     36  27  69 NE3       30.47R
RICKENBACK AFB FAIR      35  26  68 NE5       30.46S
NEWARK         FAIR      32  27  81 CALM      30.47R
MARION         FAIR      30  26  85 SE3       30.47R
LANCASTER      FAIR      32  29  88 CALM      30.47R
ZANESVILLE     FAIR      31  25  78 CALM      30.48R
NEW PHILLY     FAIR      31  27  85 CALM      30.50R
$$




USA.gov is the U.S. government's official web portal to all federal, state and local government web resources and services.